Flag for U.S.A. Weather past 2 weeks in Fullerton, California, U.S.A.

Now
78 °F

Clear.


Feels Like: 78 °F
Forecast: 67 / 89 °F
Wind: No wind

Location: Fullerton Municipal Airport

Current Time: Aug 28, 2014 at 11:04:02 PM

Latest Report: Aug 28, 2014 at 9:53 PM


Visibility: 10 mi

Pressure: 29.89 "Hg

Humidity: 31%

Dew point: 45 °F

Location of FullertonLocation

Historic Weather in Fullerton — Graph

°F

Fullerton temperature yesterday

Maximum temperature yesterday: 94 °F (at 12:53 PM)
Minimum temperature yesterday: 68 °F (at 4:53 AM)
Average temperature yesterday: 81 °F

Past Weeks' High & Low Weather Summary

 TemperatureHumidityPressure
High96 °F (Aug 28, 2:53 PM)87% (Aug 18, 6:53 AM)30.01 "Hg (Aug 18, 6:53 AM)
Low66 °F (Aug 14, 3:53 AM)18% (Aug 16, 3:53 PM)29.78 "Hg (Aug 18, 4:53 PM)
Average76 °F57%29.91 "Hg
* Reported Aug 13 9:53 PM — Aug 28 9:53 PM, Fullerton, Weather by CustomWeather, © 2014

Note: Actual official high and low records may vary slightly from our data, if they occured in-between our weather recording intervals... More about our weather records

Advertising

Fullerton weather history for previous 24 hours

 ConditionsComfort  
Time TempWeatherWind HumidityBarometerVisibility
9:53 PM
Aug 28
78 °FClear.No wind31%29.89 "Hg10 mi
8:53 PM80 °FClear.No wind27%29.88 "Hg10 mi
7:53 PM83 °FSunny.6 mph18%29.87 "Hg10 mi
6:53 PM86 °FSunny.5 mph18%29.86 "Hg10 mi
5:53 PM89 °FSunny.5 mph18%29.85 "Hg10 mi
4:53 PM92 °FSunny.7 mph20%29.86 "Hg10 mi
3:53 PM93 °FSunny.9 mph21%29.88 "Hg10 mi
2:53 PM96 °FSunny.8 mph23%29.89 "Hg10 mi
1:53 PM95 °FSunny.6 mph24%29.90 "Hg10 mi
12:53 PM94 °FSunny.7 mph24%29.92 "Hg10 mi
11:53 AM93 °FSunny.6 mph25%29.95 "Hg10 mi
10:53 AM88 °FSunny.5 mph29%29.97 "Hg10 mi
9:53 AM82 °FSunny.3 mph38%29.98 "Hg10 mi
8:53 AM78 °FSunny.No wind45%29.98 "Hg10 mi
7:53 AM75 °FSunny.No wind52%29.98 "Hg10 mi
6:53 AM70 °FClear.No wind61%29.98 "Hg10 mi
5:53 AM69 °FClear.No wind66%29.97 "Hg10 mi
4:53 AM70 °FClear.No wind64%29.97 "Hg10 mi
3:53 AM71 °FClear.No wind61%29.97 "Hg10 mi
2:53 AM72 °FClear.No wind59%29.98 "Hg10 mi
1:53 AM73 °FClear.No wind57%29.99 "Hg10 mi
12:53 AM74 °FClear.No wind53%30.00 "Hg10 mi
11:53 PM
Aug 27
75 °FClear.No wind50%30.00 "Hg10 mi
Weather by CustomWeather, © 2014

See weather overviewHow to use our weather pages